TimeEDT,TemperatureF,Dew PointF,Humidity,Sea Level PressureIn,VisibilityMPH,Wind Direction,Wind SpeedMPH,Gust SpeedMPH,PrecipitationIn,Events,Conditions,WindDirDegrees,DateUTC
12:15 AM,62.6,55.4,77,29.86,10.0,SSE,5.8,-,N/A,,Overcast,160,2012-05-23 04:15:00
12:35 AM,62.6,55.4,77,29.86,10.0,SE,3.5,-,N/A,,Overcast,130,2012-05-23 04:35:00
12:55 AM,62.6,55.4,77,29.86,10.0,Calm,Calm,-,N/A,,Overcast,0,2012-05-23 04:55:00
1:15 AM,62.6,55.4,77,29.86,10.0,Calm,Calm,-,N/A,,Overcast,0,2012-05-23 05:15:00
1:55 AM,60.8,55.4,82,29.87,10.0,Calm,Calm,-,N/A,,Overcast,0,2012-05-23 05:55:00
2:15 AM,60.8,57.2,88,29.87,5.0,Calm,Calm,-,N/A,,Overcast,0,2012-05-23 06:15:00
2:35 AM,60.8,55.4,82,29.86,10.0,Calm,Calm,-,N/A,,Overcast,0,2012-05-23 06:35:00
2:55 AM,60.8,55.4,82,29.86,5.0,Calm,Calm,-,0.01,,Overcast,0,2012-05-23 06:55:00
3:35 AM,60.8,57.2,88,29.87,10.0,Calm,Calm,-,N/A,,Overcast,0,2012-05-23 07:35:00
4:15 AM,60.8,55.4,82,29.87,10.0,Calm,Calm,-,N/A,,Overcast,0,2012-05-23 08:15:00
4:55 AM,60.8,55.4,82,29.87,5.0,NNW,5.8,-,N/A,,Overcast,340,2012-05-23 08:55:00
5:15 AM,60.8,55.4,82,29.88,3.0,NNW,3.5,-,N/A,,Overcast,330,2012-05-23 09:15:00
5:35 AM,60.8,55.4,82,29.88,3.0,NNW,3.5,-,N/A,,Overcast,340,2012-05-23 09:35:00
6:15 AM,60.8,55.4,82,29.89,2.5,NNW,4.6,-,N/A,,Overcast,340,2012-05-23 10:15:00
6:35 AM,60.8,55.4,82,29.90,3.0,North,4.6,-,N/A,,Overcast,350,2012-05-23 10:35:00
6:55 AM,59.0,55.4,88,29.91,4.0,North,6.9,-,N/A,,Overcast,360,2012-05-23 10:55:00
7:15 AM,59.0,53.6,82,29.92,3.0,North,4.6,-,N/A,,Overcast,360,2012-05-23 11:15:00
7:35 AM,59.0,55.4,88,29.92,10.0,NNW,5.8,-,N/A,,Overcast,330,2012-05-23 11:35:00
7:55 AM,59.0,55.4,88,29.93,10.0,NW,4.6,-,N/A,,Overcast,320,2012-05-23 11:55:00
8:35 AM,60.8,55.4,82,29.93,10.0,North,5.8,-,N/A,,Overcast,350,2012-05-23 12:35:00
8:55 AM,60.8,55.4,82,29.94,10.0,North,4.6,-,N/A,,Overcast,350,2012-05-23 12:55:00
9:15 AM,60.8,55.4,82,29.94,10.0,North,3.5,-,N/A,,Overcast,350,2012-05-23 13:15:00
9:35 AM,60.8,55.4,82,29.94,10.0,Calm,Calm,-,N/A,,Overcast,0,2012-05-23 13:35:00
9:55 AM,60.8,55.4,82,29.95,10.0,North,5.8,-,N/A,,Overcast,350,2012-05-23 13:55:00
10:15 AM,60.8,55.4,82,29.96,10.0,North,8.1,-,N/A,,Overcast,360,2012-05-23 14:15:00
10:55 AM,60.8,55.4,82,29.97,10.0,North,9.2,-,N/A,,Overcast,360,2012-05-23 14:55:00
11:15 AM,62.6,55.4,77,29.97,10.0,North,8.1,-,N/A,,Overcast,360,2012-05-23 15:15:00
11:35 AM,62.6,55.4,77,29.97,10.0,NNW,5.8,-,N/A,,Overcast,340,2012-05-23 15:35:00
11:55 AM,64.4,55.4,73,29.98,10.0,North,8.1,-,N/A,,Overcast,10,2012-05-23 15:55:00
12:15 PM,64.4,55.4,73,29.99,10.0,NNW,5.8,-,N/A,,Overcast,330,2012-05-23 16:15:00
12:35 PM,64.4,55.4,73,29.99,10.0,NW,4.6,-,N/A,,Overcast,320,2012-05-23 16:35:00
12:55 PM,64.4,55.4,73,29.99,10.0,NNW,5.8,-,N/A,,Overcast,330,2012-05-23 16:55:00
1:35 PM,64.4,55.4,73,29.99,10.0,WNW,6.9,-,N/A,,Overcast,300,2012-05-23 17:35:00
1:55 PM,66.2,55.4,68,29.99,10.0,NNW,5.8,-,N/A,,Overcast,340,2012-05-23 17:55:00
2:15 PM,66.2,55.4,68,29.99,10.0,North,5.8,-,N/A,,Overcast,360,2012-05-23 18:15:00
2:35 PM,66.2,55.4,68,29.99,10.0,NNW,8.1,-,N/A,,Overcast,340,2012-05-23 18:35:00
2:55 PM,68.0,55.4,64,29.99,10.0,NNE,9.2,-,N/A,,Scattered Clouds,20,2012-05-23 18:55:00
3:15 PM,68.0,55.4,64,29.98,10.0,North,6.9,-,N/A,,Partly Cloudy,10,2012-05-23 19:15:00
3:35 PM,69.8,55.4,60,29.98,10.0,Calm,Calm,-,N/A,,Partly Cloudy,0,2012-05-23 19:35:00
4:15 PM,69.8,55.4,60,29.96,10.0,North,6.9,-,N/A,,Clear,10,2012-05-23 20:15:00
4:35 PM,69.8,55.4,60,29.96,10.0,North,4.6,-,N/A,,Clear,10,2012-05-23 20:35:00
4:55 PM,71.6,57.2,60,29.96,10.0,NNW,4.6,-,N/A,,Clear,340,2012-05-23 20:55:00
5:15 PM,71.6,57.2,60,29.97,10.0,Calm,Calm,-,N/A,,Clear,0,2012-05-23 21:15:00
5:35 PM,71.6,55.4,57,29.97,10.0,North,8.1,-,N/A,,Clear,10,2012-05-23 21:35:00
5:55 PM,71.6,55.4,57,29.96,10.0,North,6.9,-,N/A,,Clear,360,2012-05-23 21:55:00
6:15 PM,71.6,55.4,57,29.97,10.0,North,6.9,-,N/A,,Clear,360,2012-05-23 22:15:00
6:55 PM,71.6,55.4,57,29.97,10.0,NNW,5.8,-,N/A,,Clear,330,2012-05-23 22:55:00
7:15 PM,69.8,57.2,64,29.97,10.0,NW,6.9,-,N/A,,Clear,320,2012-05-23 23:15:00
7:35 PM,69.8,57.2,64,29.98,10.0,NNW,3.5,-,N/A,,Clear,340,2012-05-23 23:35:00
7:55 PM,68.0,57.2,68,29.98,10.0,Calm,Calm,-,N/A,,Clear,0,2012-05-23 23:55:00
8:15 PM,66.2,57.2,73,29.99,10.0,Calm,Calm,-,N/A,,Clear,0,2012-05-24 00:15:00
8:35 PM,66.2,57.2,73,29.99,10.0,Calm,Calm,-,N/A,,Clear,0,2012-05-24 00:35:00
9:15 PM,62.6,55.4,77,30.01,10.0,SSE,4.6,-,N/A,,Clear,150,2012-05-24 01:15:00
9:35 PM,62.6,55.4,77,30.01,10.0,SE,4.6,-,N/A,,Clear,130,2012-05-24 01:35:00
9:55 PM,62.6,55.4,77,30.02,10.0,ESE,6.9,-,N/A,,Clear,120,2012-05-24 01:55:00
10:15 PM,62.6,55.4,77,30.03,10.0,SE,8.1,-,N/A,,Clear,130,2012-05-24 02:15:00
10:55 PM,60.8,53.6,77,30.04,10.0,SE,5.8,-,N/A,,Clear,130,2012-05-24 02:55:00
11:16 PM,60.8,53.6,77,30.04,10.0,SE,8.1,-,N/A,,Clear,140,2012-05-24 03:16:00
11:55 PM,59.0,53.6,82,30.05,10.0,SE,3.5,-,N/A,,Clear,140,2012-05-24 03:55:00